Ellsworth AFB, SD

3:39 AM MST on December 05, 2016 (GMT -0700)
Ellsworth Air Force Base

Weather History for KRCA - March, 2013

Change the Weather History Date:

Sunday, March 17, 2013

  Actual Average Record
Temperature  
Mean Temperature 36 °F -  
Max Temperature 48 °F 43 °F 78 °F (2012)
Min Temperature 23 °F 23 °F 14 °F (2006)
Degree Days  
Heating Degree Days 30    
Moisture  
Dew Point 27 °F    
Average Humidity 87    
Maximum Humidity 100    
Minimum Humidity 62    
Precipitation  
Precipitation 0.11 in - - ()
Sea Level Pressure  
Sea Level Pressure 29.67 in    
Wind  
Wind Speed 22 mph (ESE)    
Max Wind Speed 43 mph    
Max Gust Speed 55 mph    
Visibility 6 miles    
Events Rain , Snow    
Averages and records for this station are not official NWS values.
T = Trace of Precipitation, MM = Missing Value Source: NWS Daily Summary

Daily Weather History Graph

Daily Weather History Graph

Search for Another Location

Airport or City:

Trip Planner

Search our weather history database for the weather conditions in past years. The results will help you decide how hot, cold, wet, or windy it might be!

Date:

Astronomy

Mar. 17, 2013 Rise Set
Actual Time 7:00 AM MDT 7:01 PM MDT
Civil Twilight 6:31 AM MDT 7:30 PM MDT
Nautical Twilight 5:58 AM MDT 8:04 PM MDT
Astronomical Twilight 5:23 AM MDT 8:38 PM MDT
Moon 10:03 AM MDT (3/17) 12:22 AM MDT (3/17)
Length of Visible Light 12h 58m
Length of Day
12h 00m
Waxing Crescent, 32% of the Moon is Illuminated
Mar 17
Waxing Crescent
Mar 19
First Quarter
Mar 27
Full
Apr 2
Last Quarter
Apr 10
New

Hourly Weather History & Observations

Time (MDT) Temp. Windchill Dew Point Humidity Pressure Visibility Wind Dir Wind Speed Gust Speed Precip Events Conditions
12:18 AM 23.0 °F 10.1 °F 21.2 °F 93% 29.98 in 4.0 mi SSE 15.0 mph - N/A   Overcast
12:55 AM 23.7 °F 11.0 °F 22.3 °F 94% 29.97 in 3.0 mi SE 15.0 mph - N/A   Overcast
12:59 AM 24.8 °F 11.9 °F 23.0 °F 93% 29.96 in 3.0 mi SE 16.1 mph - N/A   Overcast
1:38 AM 24.8 °F 10.3 °F 23.0 °F 93% 29.93 in 2.5 mi SSE 20.7 mph - N/A   Overcast
1:41 AM 24.8 °F 10.3 °F 23.0 °F 93% 29.93 in 2.5 mi SSE 20.7 mph - N/A   Overcast
1:52 AM 23.0 °F 8.3 °F 23.0 °F 100% 29.92 in 2.0 mi SSE 19.6 mph - N/A   Light Freezing Rain
1:55 AM 23.7 °F 8.9 °F 22.3 °F 94% 29.92 in 2.5 mi SSE 20.7 mph - 0.00 in   Light Freezing Rain
1:58 AM 23.0 °F 8.3 °F 23.0 °F 100% 29.92 in 2.0 mi SSE 19.6 mph - N/A   Light Freezing Rain
1:59 AM 23.0 °F 8.0 °F 23.0 °F 100% 29.92 in 2.5 mi SSE 20.7 mph - N/A   Light Freezing Rain
2:13 AM 24.8 °F 10.7 °F 23.0 °F 93% 29.92 in 2.5 mi SSE 19.6 mph - N/A   Overcast
2:14 AM 24.8 °F 10.7 °F 23.0 °F 93% 29.91 in 2.5 mi SSE 19.6 mph - N/A   Light Freezing Rain
2:16 AM 24.8 °F 10.7 °F 23.0 °F 93% 29.91 in 2.5 mi SSE 19.6 mph - N/A   Overcast
2:19 AM 24.8 °F 10.3 °F 23.0 °F 93% 29.91 in 2.5 mi SSE 20.7 mph - N/A   Overcast
2:25 AM 23.0 °F 8.3 °F 21.2 °F 93% 29.91 in 2.5 mi SSE 19.6 mph - N/A   Overcast
2:55 AM 24.1 °F 10.1 °F 22.5 °F 94% 29.88 in 2.5 mi SSE 18.4 mph 27.6 mph 0.00 in   Mostly Cloudy
2:57 AM 24.8 °F 11.5 °F 23.0 °F 93% 29.89 in 3.0 mi SSE 17.3 mph 27.6 mph N/A   Mostly Cloudy
3:05 AM 23.0 °F 8.3 °F 21.2 °F 93% 29.88 in 2.5 mi SSE 19.6 mph - N/A   Mostly Cloudy
3:13 AM 23.0 °F 7.2 °F 23.0 °F 100% 29.87 in 2.0 mi SSE 23.0 mph 29.9 mph N/A   Mostly Cloudy
3:21 AM 24.8 °F 8.7 °F 23.0 °F 93% 29.86 in 1.8 mi SSE 26.5 mph 36.8 mph N/A   Mostly Cloudy
3:24 AM 24.8 °F 8.4 °F 23.0 °F 93% 29.86 in 1.5 mi South 27.6 mph 36.8 mph N/A   Mostly Cloudy
3:27 AM 24.8 °F 9.3 °F 23.0 °F 93% 29.86 in 1.5 mi South 24.2 mph 36.8 mph N/A   Light Freezing Rain
3:28 AM 24.8 °F 9.3 °F 23.0 °F 93% 29.86 in 1.2 mi South 24.2 mph 36.8 mph N/A   Light Freezing Rain
3:36 AM 24.8 °F 9.3 °F 23.0 °F 93% 29.85 in 1.5 mi South 24.2 mph 33.4 mph N/A   Light Freezing Rain
3:37 AM 24.8 °F 9.6 °F 23.0 °F 93% 29.85 in 1.5 mi South 23.0 mph 33.4 mph N/A   Mostly Cloudy
3:42 AM 24.8 °F 9.6 °F 23.0 °F 93% 29.84 in 1.8 mi SSE 23.0 mph 36.8 mph N/A   Mostly Cloudy
3:46 AM 24.8 °F 9.6 °F 23.0 °F 93% 29.84 in 2.0 mi South 23.0 mph 36.8 mph N/A   Mostly Cloudy
3:55 AM 23.7 °F 8.2 °F 21.7 °F 92% 29.83 in 2.0 mi SSE 23.0 mph 32.2 mph 0.00 in   Mostly Cloudy
3:58 AM 23.0 °F 7.2 °F 21.2 °F 93% 29.83 in 2.5 mi SSE 23.0 mph 32.2 mph N/A   Mostly Cloudy
4:08 AM 24.8 °F 10.0 °F 21.2 °F 86% 29.83 in 3.0 mi SSE 21.9 mph 29.9 mph N/A   Mostly Cloudy
4:11 AM 24.8 °F 10.0 °F 21.2 °F 86% 29.83 in 3.0 mi SSE 21.9 mph 31.1 mph N/A   Scattered Clouds
4:55 AM 23.7 °F 9.7 °F 21.0 °F 89% 29.80 in 10.0 mi SE 18.4 mph 25.3 mph N/A   Partly Cloudy
5:00 AM 24.8 °F 10.7 °F 21.2 °F 86% 29.79 in 10.0 mi SE 19.6 mph 26.5 mph N/A   Partly Cloudy
5:32 AM 24.8 °F 10.7 °F 21.2 °F 86% 29.77 in 10.0 mi SSE 19.6 mph 25.3 mph N/A   Mostly Cloudy
5:43 AM 24.8 °F 11.9 °F 23.0 °F 93% 29.78 in 10.0 mi SE 16.1 mph 28.8 mph N/A   Mostly Cloudy
5:55 AM 25.5 °F 10.6 °F 22.5 °F 88% 29.77 in 10.0 mi SSE 23.0 mph 33.4 mph N/A   Overcast
6:33 AM 24.8 °F 9.3 °F 23.0 °F 93% 29.73 in 9.0 mi SSE 24.2 mph - N/A   Overcast
6:50 AM 24.8 °F 11.9 °F 23.0 °F 93% 29.73 in 10.0 mi SE 16.1 mph 31.1 mph N/A   Overcast
6:52 AM 24.8 °F 12.4 °F 23.0 °F 93% 29.73 in 10.0 mi SE 15.0 mph 31.1 mph N/A   Overcast
6:55 AM 25.3 °F 14.1 °F 22.8 °F 90% 29.73 in 10.0 mi SE 12.7 mph 31.1 mph N/A   Overcast
7:08 AM 24.8 °F 16.1 °F 23.0 °F 93% 29.73 in 10.0 mi East 8.1 mph - N/A   Overcast
7:17 AM 24.8 °F 15.3 °F 23.0 °F 93% 29.72 in 10.0 mi East 9.2 mph - N/A   Overcast
7:35 AM 24.8 °F 14.0 °F 23.0 °F 93% 29.70 in 10.0 mi SE 11.5 mph - N/A   Overcast
7:44 AM 26.6 °F 16.2 °F 23.0 °F 86% 29.70 in 10.0 mi SE 11.5 mph - N/A   Overcast
7:55 AM 25.9 °F 14.8 °F 23.5 °F 91% 29.69 in 10.0 mi SE 12.7 mph - N/A   Overcast
8:09 AM 26.6 °F 16.2 °F 23.0 °F 86% 29.68 in 10.0 mi East 11.5 mph - N/A   Overcast
8:17 AM 26.6 °F 16.8 °F 24.8 °F 93% 29.67 in 10.0 mi East 10.4 mph - N/A   Overcast
8:55 AM 27.7 °F 16.6 °F 25.3 °F 91% 29.65 in 10.0 mi SE 13.8 mph - N/A   Overcast
9:01 AM 28.4 °F 19.1 °F 24.8 °F 86% 29.66 in 10.0 mi SSE 10.4 mph - N/A   Overcast
9:18 AM 28.4 °F 19.1 °F 26.6 °F 93% 29.63 in 10.0 mi ESE 10.4 mph - N/A   Overcast
9:55 AM 30.2 °F 19.8 °F 27.7 °F 90% 29.60 in 10.0 mi SSE 13.8 mph 19.6 mph N/A   Overcast
10:09 AM 30.2 °F 19.3 °F 28.4 °F 93% 29.58 in 10.0 mi SSE 15.0 mph 24.2 mph N/A   Overcast
10:19 AM 32.0 °F 22.1 °F 28.4 °F 87% 29.56 in 10.0 mi SSE 13.8 mph - N/A   Overcast
10:44 AM 32.0 °F 18.9 °F 28.4 °F 87% 29.53 in 10.0 mi SSE 24.2 mph 29.9 mph N/A   Overcast
10:51 AM 32.0 °F 18.6 °F 28.4 °F 87% 29.52 in 10.0 mi SSE 25.3 mph 32.2 mph N/A   Mostly Cloudy
10:55 AM 32.0 °F 18.1 °F 29.1 °F 89% 29.51 in 10.0 mi SSE 27.6 mph 34.5 mph N/A   Mostly Cloudy
11:01 AM 32.0 °F 18.9 °F 30.2 °F 93% 29.52 in 10.0 mi SSE 24.2 mph 34.5 mph N/A   Mostly Cloudy
11:13 AM 33.8 °F 21.0 °F 30.2 °F 87% 29.52 in 10.0 mi South 25.3 mph 33.4 mph N/A   Mostly Cloudy
11:55 AM 33.8 °F 21.9 °F 30.4 °F 87% 29.49 in 10.0 mi SSE 21.9 mph 29.9 mph N/A   Mostly Cloudy
12:55 PM 35.6 °F 24.5 °F 31.8 °F 86% 29.44 in 10.0 mi SSE 20.7 mph 29.9 mph 0.01 in   Overcast
1:55 PM 39.6 °F 30.3 °F 34.5 °F 82% 29.40 in 10.0 mi South 18.4 mph - 0.01 in   Scattered Clouds
2:55 PM 46.9 °F - 34.3 °F 62% 29.40 in 10.0 mi NNW 8.1 mph - N/A   Overcast
3:17 PM 48.2 °F - 35.6 °F 62% 29.42 in 10.0 mi North 12.7 mph - N/A Rain Light Rain
3:31 PM 44.6 °F 37.4 °F 35.6 °F 71% 29.45 in 10.0 mi WNW 16.1 mph 28.8 mph N/A Rain Light Rain
3:35 PM 42.8 °F 34.8 °F 35.6 °F 76% 29.47 in 9.0 mi WNW 17.3 mph 28.8 mph N/A Rain Light Rain
3:45 PM 41.0 °F 31.4 °F 35.6 °F 81% 29.48 in 2.5 mi NNW 21.9 mph 36.8 mph N/A Rain Heavy Rain
3:46 PM 41.0 °F 31.9 °F 35.6 °F 81% 29.48 in 2.5 mi NNW 19.6 mph 36.8 mph N/A Rain Heavy Rain
3:47 PM 39.2 °F 29.8 °F 35.6 °F 87% 29.48 in 2.5 mi North 18.4 mph 36.8 mph N/A Rain Heavy Rain
3:48 PM 39.2 °F 29.8 °F 35.6 °F 87% 29.48 in 2.5 mi North 18.4 mph 36.8 mph N/A Rain Heavy Rain
3:52 PM 39.2 °F 29.6 °F 35.6 °F 87% 29.47 in 3.0 mi North 19.6 mph 34.5 mph N/A Rain Rain
3:53 PM 39.2 °F 29.3 °F 35.6 °F 87% 29.47 in 4.0 mi North 20.7 mph 34.5 mph N/A Rain Rain
3:55 PM 39.2 °F 29.8 °F 35.8 °F 88% 29.47 in 5.0 mi NNW 18.4 mph 28.8 mph 0.08 in Rain Rain
3:56 PM 39.2 °F 28.7 °F 35.6 °F 87% 29.47 in 6.0 mi NNW 23.0 mph 42.6 mph N/A Rain Light Rain
3:58 PM 39.2 °F 26.8 °F 35.6 °F 87% 29.46 in 8.0 mi NNW 33.4 mph 43.7 mph N/A Rain Light Rain
4:02 PM 39.2 °F 27.8 °F 33.8 °F 81% 29.48 in 8.0 mi NW 27.6 mph 48.3 mph N/A Rain Light Rain
4:03 PM 39.2 °F 28.3 °F 33.8 °F 81% 29.48 in 8.0 mi NNW 25.3 mph 48.3 mph N/A Rain Light Rain
4:05 PM 39.2 °F 28.5 °F 33.8 °F 81% 29.48 in 8.0 mi NNW 24.2 mph 48.3 mph N/A Rain Rain
4:06 PM 39.2 °F 28.5 °F 33.8 °F 81% 29.48 in 8.0 mi NNW 24.2 mph 48.3 mph N/A Rain Rain
4:07 PM 39.2 °F 28.7 °F 33.8 °F 81% 29.48 in 7.0 mi NNW 23.0 mph 48.3 mph N/A Rain Rain
4:12 PM 39.2 °F 28.3 °F 33.8 °F 81% 29.48 in 9.0 mi NNW 25.3 mph 32.2 mph N/A Rain Light Rain
4:18 PM 39.2 °F 28.5 °F 35.6 °F 87% 29.48 in 10.0 mi NNW 24.2 mph 32.2 mph N/A   Overcast
4:55 PM 42.1 °F 30.3 °F 35.4 °F 77% 29.50 in 10.0 mi NNW 36.8 mph 41.4 mph 0.01 in   Mostly Cloudy
4:56 PM 41.0 °F 28.5 °F 35.6 °F 81% 29.50 in 10.0 mi NNW 39.1 mph 48.3 mph N/A   Mostly Cloudy
5:07 PM 37.4 °F 23.1 °F 32.0 °F 81% 29.53 in 10.0 mi NNW 41.4 mph 55.2 mph N/A Rain Light Rain
5:10 PM 37.4 °F 23.0 °F 32.0 °F 81% 29.53 in 10.0 mi NW 42.6 mph 55.2 mph N/A Rain Light Rain
5:16 PM 37.4 °F 23.5 °F 32.0 °F 81% 29.54 in 10.0 mi NW 39.1 mph 55.2 mph N/A Rain Light Rain
5:17 PM 37.4 °F 23.6 °F 32.0 °F 81% 29.55 in 10.0 mi NW 38.0 mph 55.2 mph N/A Rain Light Rain
5:55 PM 34.0 °F 19.3 °F 28.8 °F 81% 29.59 in 10.0 mi NNW 35.7 mph 54.1 mph 0.00 in Snow Light Snow
6:17 PM 33.8 °F 19.2 °F 30.2 °F 87% 29.62 in 2.5 mi NNW 34.5 mph 46.0 mph N/A Snow Light Snow
6:18 PM 33.8 °F 18.8 °F 30.2 °F 87% 29.63 in 2.5 mi NNW 36.8 mph 46.0 mph N/A Snow Light Snow
6:20 PM 33.8 °F 20.1 °F 30.2 °F 87% 29.64 in 2.0 mi NNW 29.9 mph 46.0 mph N/A Snow Light Snow
6:22 PM 33.8 °F 20.1 °F 30.2 °F 87% 29.63 in 1.8 mi NNW 29.9 mph 46.0 mph N/A Snow Light Snow
6:24 PM 32.0 °F 17.2 °F 30.2 °F 93% 29.63 in 1.5 mi NNW 32.2 mph 46.0 mph N/A Snow Light Snow
6:28 PM 32.0 °F 18.1 °F 30.2 °F 93% 29.64 in 1.2 mi NNW 27.6 mph 41.4 mph N/A Snow Light Snow
6:31 PM 32.0 °F 18.1 °F 30.2 °F 93% 29.64 in 1.0 mi NNW 27.6 mph 38.0 mph N/A Snow Light Snow
6:34 PM 32.0 °F 17.9 °F 30.2 °F 93% 29.64 in 0.8 mi NNW 28.8 mph 39.1 mph N/A Snow Light Snow
6:36 PM 32.0 °F 16.5 °F 30.2 °F 93% 29.64 in 0.8 mi NNW 35.7 mph 44.9 mph N/A Snow Light Snow
6:37 PM 32.0 °F 16.3 °F 30.2 °F 93% 29.63 in 0.8 mi NNW 36.8 mph 44.9 mph N/A Snow Light Snow
6:38 PM 32.0 °F 16.3 °F 30.2 °F 93% 29.64 in 0.8 mi NNW 36.8 mph 44.9 mph N/A Snow Light Snow
6:39 PM 32.0 °F 16.7 °F 30.2 °F 93% 29.64 in 0.8 mi NNW 34.5 mph 44.9 mph N/A Snow Light Snow
6:41 PM 32.0 °F 16.3 °F 30.2 °F 93% 29.64 in 1.0 mi NNW 36.8 mph 44.9 mph N/A Snow Light Snow
6:44 PM 32.0 °F 17.2 °F 28.4 °F 87% 29.65 in 1.2 mi NNW 32.2 mph 44.9 mph N/A Snow Light Snow
6:46 PM 32.0 °F 17.9 °F 28.4 °F 87% 29.66 in 1.5 mi NNW 28.8 mph 44.9 mph N/A Snow Light Snow
6:47 PM 32.0 °F 17.6 °F 28.4 °F 87% 29.65 in 1.8 mi NNW 29.9 mph 42.6 mph N/A Snow Light Snow
6:49 PM 32.0 °F 17.0 °F 28.4 °F 87% 29.65 in 2.0 mi NNW 33.4 mph 42.6 mph N/A Snow Light Snow
6:52 PM 32.0 °F 16.5 °F 28.4 °F 87% 29.65 in 2.5 mi NW 35.7 mph 42.6 mph N/A Snow Light Snow
6:53 PM 32.0 °F 16.7 °F 28.4 °F 87% 29.65 in 3.0 mi NNW 34.5 mph 42.6 mph N/A Snow Light Snow
6:55 PM 31.5 °F 15.0 °F 27.9 °F 87% 29.65 in 4.0 mi NW 40.3 mph 46.0 mph 0.00 in Snow Light Snow
6:58 PM 32.0 °F 16.0 °F 26.6 °F 80% 29.65 in 7.0 mi NNW 39.1 mph 49.5 mph N/A Snow Light Snow
7:06 PM 32.0 °F 15.8 °F 24.8 °F 75% 29.65 in 10.0 mi NNW 40.3 mph 55.2 mph N/A   Overcast
7:09 PM 32.0 °F 16.2 °F 24.8 °F 75% 29.65 in 10.0 mi NNW 38.0 mph 55.2 mph N/A   Overcast
7:30 PM 30.2 °F 13.5 °F 24.8 °F 80% 29.67 in 9.0 mi NNW 39.1 mph 49.5 mph N/A   Mostly Cloudy
7:36 PM 30.2 °F 13.1 °F 24.8 °F 80% 29.67 in 10.0 mi NNW 41.4 mph 49.5 mph N/A   Mostly Cloudy
7:55 PM 30.9 °F 14.3 °F 23.4 °F 74% 29.68 in 10.0 mi NNW 40.3 mph 52.9 mph 0.00 in   Partly Cloudy
8:55 PM 30.6 °F 15.0 °F 22.3 °F 71% 29.71 in 10.0 mi NW 33.4 mph 46.0 mph N/A   Partly Cloudy
9:55 PM 27.9 °F 13.1 °F 21.6 °F 77% 29.75 in 10.0 mi NNW 25.3 mph - N/A   Partly Cloudy
10:55 PM 27.0 °F 12.5 °F 19.0 °F 72% 29.77 in 10.0 mi NNW 23.0 mph 29.9 mph N/A   Overcast
11:55 PM 24.8 °F 11.9 °F 17.4 °F 74% 29.83 in 10.0 mi NNW 16.1 mph - N/A   Overcast